Location: Austin
(30.3000°N, 97.7500°W)
Time: 08:10:29
(UTC-06:00)

SPOT 1/Viking Rocket - Pass Details

Date: 10 January 2026
Orbit: 772 x 790 km, 98.2° (Epoch: 22 January)

Event Time Altitude Azimuth Distance (km) Brightness Sun altitude
Rises 18:38:53 0° 161° (SSE) 3,261 6.8 -10.8°
Reaches altitude 10° 18:41:12 10° 160° (SSE) 2,334 6.0 -11.3°
Maximum altitude 18:46:20 72° 76° (ENE) 820 3.5 -12.4°
Drops below altitude 10° 18:51:28 10° 353° (N) 2,334 5.9 -13.4°
Sets 18:53:47 0° 351° (N) 3,262 6.7 -13.9°
